Miscellaneous Local Product
Issued by NWS North Platte, NE

Home | Current Version | Previous Version | Graphics & Text | Print | Product List | Glossary On
Versions: 1 2 3 4 5 6 7 8 9 10 11 12 13 14 15 16 17 18 19 20 21 22 23 24 25 26 27 28 29 30 31 32 33 34 35 36 37 38 39 40 41 42 43 44 45 46 47 48 49 50
000
AXUS43 KLBF 040210
MISLBF


WESTERN AND NORTH CENTRAL NEBRASKA HOURLY WEATHER ROUNDUP
NATIONAL WEATHER SERVICE NORTH PLATTE NE
900 PM CDT THU SEP 03 2015

NOTE: "FAIR" INDICATES FEW OR NO CLOUDS BELOW 12,000 FEET WITH NO
SIGNIFICANT WEATHER AND/OR OBSTRUCTIONS TO VISIBILITY.

NOTE: STATIONS NOT REPORTING VARIABLES SUCH AS SKY/WEATHER OR
PRESSURE ARE PROVIDED BY THE NEBRASKA DEPARTMENT OF
ROADS...RAWS...AND APRS NETWORKS...AND ARE NOT UNDER
NATIONAL WEATHER SERVICE QUALITY CONTROL.

...OBSERVATIONS IN AND NEAR THE EASTERN PANHANDLE OF NEBRASKA...

CITY           SKY/WX    TMP DP  RH WIND       PRES   REMARKS
PINE RIDGE     CLOUDY    80  49  33 E8        29.83R
CHADRON        CLOUDY    82  46  28 CALM      29.80R
ALLIANCE       CLOUDY    76  50  40 NW9       29.88R
SIDNEY         CLOUDY    76  48  37 N9        29.90R
CRESCENT LAKE    N/A     77  52  41 NW9         N/A
BIG SPRINGS      N/A     76  56  50 N3          N/A
$$

...OBSERVATIONS IN NORTH CENTRAL NEBRASKA...

CITY           SKY/WX    TMP DP  RH WIND       PRES   REMARKS
VALENTINE      CLOUDY    82  54  37 NW3       29.77F
THEDFORD       CLOUDY    80  56  45 W3        29.80S
AINSWORTH      CLOUDY    80  64  59 S6        29.78R
O`NEILL        MOCLDY    80  70  72 SE6       29.78R
ORD            PTCLDY    78  69  73 E6        29.75R
BROKEN BOW     MOCLDY    81  65  58 E7        29.77R
SPRINGVIEW       N/A     82  68  62 CALM        N/A
SARGENT          N/A     79  66  63 CALM        N/A
CHAMBERS         N/A     78  69  73 CALM        N/A
EWING            N/A     77  68  73 CALM        N/A
$$

...OBSERVATIONS IN SOUTHWEST NEBRASKA AND FAR NORTHEAST COLORADO...

CITY           SKY/WX    TMP DP  RH WIND       PRES   REMARKS
WRAY           CLOUDY    71  61  69 NW21G32   29.82R
HOLYOKE        LGT RAIN  81  55  41 CALM      29.86R
IMPERIAL       CLOUDY    82  54  37 W3        29.77S
OGALLALA       MOCLDY    81  55  41 N13       29.79R
NORTH PLATTE   CLOUDY    78  67  68 E7        29.76R
MCCOOK         CLOUDY    87  58  37 S12       29.75R
LEXINGTON      CLOUDY    84  62  47 S9        29.77R
PAXTON           N/A     79  68  68 CALM        N/A
BRADY            N/A     79  69  70 CALM        N/A
CALLAWAY         N/A     75  67  77 SE5         N/A
$$

...OBSERVATIONS IN CENTRAL LINCOLN COUNTY AREA...

CITY           SKY/WX    TMP DP  RH WIND       PRES   REMARKS
N.P. AIRPORT   CLOUDY    78  67  68 E7        29.76R
N.P. DOWNTOWN    N/A     83  68  60 CALM        N/A
N.P. HILLCREST   N/A     82  64  53 E10         N/A
$$

...SOME OBSERVATIONS FROM AROUND THE REGION...

CITY           SKY/WX    TMP DP  RH WIND       PRES   REMARKS
DENVER         MOCLDY    63  57  81 W9        30.00F
LARAMIE        CLOUDY    54  32  43 CALM      30.13F
CHEYENNE       CLOUDY    65  47  52 NW14G23   30.04F
SCOTTSBLUFF    CLOUDY    79  48  33 VRB3      29.91R
RAPID CITY     MOCLDY    79  54  41 S16G22    29.77R
PIERRE         CLOUDY    82  68  62 SE10      29.69S
WINNER         FAIR      80  68  66 SE10      29.73S
SIOUX FALLS    MOCLDY    80  72  76 SE8       29.81R
OMAHA          PTCLDY    83  71  67 SE14      29.82R
GRAND ISLAND   MOCLDY    82  65  56 SE14      29.79R
KANSAS CITY    CLEAR     76  67  73 S8        29.90R
WICHITA        MOCLDY    82  64  54 SE13      29.85R
HAYS           CLOUDY    88  57  35 S16       29.79R
LIBERAL        MOCLDY    86  54  32 S16       29.85R
GOODLAND       MOCLDY    83  54  36 SE9       29.81R
$$



USA.gov is the U.S. government's official web portal to all federal, state and local government web resources and services.